Location: Gwatt
(46.7204°N, 7.6223°E)
Time: 08:44:11
(UTC+00:00)

Vanguard 3 - Pass Details

Date: 22 January 2021
Orbit: 508 x 3261 km, 33.3° (Epoch: 24 February)

Event Time Altitude Azimuth Distance (km) Brightness Sun altitude
Exits shadow 04:30:14 22° 214° (SW) 2,704 9.5 -26.2°
Maximum altitude 04:35:22 38° 163° (SSE) 2,502 9.7 -25.3°
Drops below altitude 10° 04:47:45 10° 104° (ESE) 5,260 12.3 -23.2°
Sets 04:53:06 0° 98° (E) 6,655 13.3 -22.3°
